[[{"header":{"parameterUnit":"m.s-1","parameterCategory":1,"la1":30.2991,"la2":30.254,"lo1":-89.0895,"lo2":-89.0444,"dy":0.0017,"dx":0.0017,"nx":28,"ny":28,"refTime":"2023-10-15T21:00:00:Z","depth":0,"parameterNumber":2,"parameterNumberName":"U-component_of_WINDS"},"data":[0,0,0,0,0,0,0,0,0,0,0,0,0,0,0,0,0,0,0,0,0,0,0,0,0,0,0,0,0,0,0,0,0,0,0,0,0,0,0,0,0,0,0,0,0,0,0,0,0,0,0,0,0,0,0,0,0,0,2.8923,2.8923,0,2.8939,2.8939,2.8939,2.8898,2.8897,2.8896,2.8894,2.8909,2.8911,2.8912,0,0,0,0,0,0,0,0,0,0,0,0,0,2.8859,2.8861,2.8923,2.8923,2.8924,2.8939,2.8939,2.8939,2.8898,2.8897,2.8895,2.8894,2.8909,2.891,2.8912,0,0,0,0,0,0,0,0,0,0,0,0,0,2.8882,2.8861,2.8923,2.8905,2.8904,2.8939,2.8939,2.8939,2.8899,2.8897,2.8895,2.8893,2.8908,2.891,2.8913,2.8966,0,0,2.892,2.8921,0,0,0,0,0,0,0,0,2.8881,2.8884,2.8908,2.8906,2.8905,2.8915,2.8922,2.8948,2.8899,2.8901,2.8894,2.8892,2.8912,2.8914,2.8921,2.8966,2.8967,2.892,2.8922,2.8923,2.8923,0,0,0,0,0,0,0,2.8879,2.8884,2.8929,2.8908,2.8906,2.8897,2.8898,2.8927,2.8917,2.89,2.8897,2.89,2.8911,2.8919,2.8921,2.8967,2.892,2.8922,2.8924,2.8925,2.9058,2.906,0,0,0,0,0,0,2.888,2.8882,2.8929,2.893,2.8888,2.8899,2.8901,2.8913,2.8917,2.8915,2.8901,2.8898,2.8916,2.8919,2.8922,2.8985,2.8923,2.8925,2.8926,2.9056,2.9059,2.9061,0,0,0,0,0,0,2.8879,2.8885,2.8928,2.8905,2.891,2.8902,2.8917,2.8915,2.8922,2.8917,2.8916,2.8911,2.8915,2.8918,2.8956,2.8985,2.8926,2.8928,2.9054,2.9057,2.906,2.9111,0,0,0,0,0,0,2.8877,2.8884,2.8904,2.8906,2.8912,2.8962,2.8919,2.8916,2.8927,2.8922,2.8926,2.8925,2.8913,2.8952,2.8958,2.8987,2.893,2.9051,2.9055,2.9059,2.9107,2.9116,2.9123,0,0,0,0,0,2.8875,2.8917,2.8905,2.8911,2.8936,2.8963,2.8966,2.8953,2.8929,2.8949,2.8947,2.8925,2.8981,2.8956,2.8962,2.8993,2.9049,2.9054,2.9059,2.9103,2.9114,2.9123,0,0,0,0,0,0,2.8917,2.8917,2.8904,2.8947,2.8956,2.8956,2.8981,2.8964,2.8979,2.8974,2.8956,2.8958,2.8998,2.8999,2.8972,2.9045,2.9011,2.9017,2.9043,2.9053,2.9061,2.906,2.8932,0,0,0,0,0,2.8932,2.8954,2.8952,2.8991,2.8996,2.8988,2.9,2.8989,2.8996,2.8999,2.8999,2.9007,2.9027,2.904,2.9058,2.9107,2.9108,2.9131,2.914,2.9146,2.9152,2.9179,2.919,2.9077,2.9077,2.9077,0,0,2.8961,2.8964,2.8979,2.9,2.9005,2.9029,2.8991,2.9017,2.9035,2.9003,2.9038,2.9039,2.9047,2.9091,2.911,2.9093,2.9184,2.9153,2.9158,2.9159,2.9185,2.9196,2.9206,2.908,2.908,2.9079,0,0,2.9028,2.9032,2.9066,2.9072,2.9081,2.9076,2.9085,2.9088,2.9088,2.9123,2.91,2.9121,2.9155,2.9162,2.9171,2.9244,2.9225,2.925,2.9293,2.932,2.9329,2.9337,2.9363,2.9373,2.9256,2.9256,2.9256,0,2.9064,2.9099,2.9085,2.9114,2.9124,2.9098,2.9133,2.914,2.9154,2.9162,2.9143,2.9186,2.919,2.9236,2.9254,2.9261,2.9271,2.9249,2.9329,2.9337,2.9344,2.9369,2.9379,2.9259,2.9259,2.9258,2.9258,0,2.9143,2.9168,2.9194,2.9209,2.9223,2.9254,2.9246,2.9262,2.9251,2.9248,2.9285,2.9289,2.9308,2.9318,2.9307,2.9364,2.9353,2.9332,2.9297,2.9358,2.9381,2.9391,2.9263,2.9262,2.9261,2.926,0,0,2.9233,2.9243,2.9253,2.9261,2.927,2.9289,2.9321,2.934,2.9354,2.9366,2.9392,2.9423,2.9404,2.9413,2.9403,2.9427,2.9486,2.9403,2.9403,2.9419,2.955,2.9565,2.9576,2.9474,2.9476,2.9478,2.9549,0,2.9299,2.9353,2.9343,2.9395,2.9419,2.9396,2.9424,2.9433,2.9432,2.9452,2.9451,2.9473,2.9446,2.9452,2.9475,2.9474,2.9512,2.9469,2.9498,2.95,2.9496,2.9589,2.9604,2.9672,2.9558,2.956,2.9561,0,2.9382,2.9399,2.9454,2.9462,2.9471,2.9496,2.9514,2.9534,2.9545,2.9542,2.9555,2.9541,2.9573,2.9539,2.9583,2.9554,2.9566,2.9568,2.957,2.9571,2.9533,2.9592,2.9692,2.9703,2.9575,2.9574,2.9573,0,2.9443,2.9479,2.9517,2.9524,2.9535,2.9553,2.9558,2.9567,2.958,2.9596,2.9605,2.9625,2.9635,2.9651,2.9643,2.9619,2.9689,2.9654,2.9688,2.9688,2.9703,2.9702,2.9806,2.9711,2.9711,2.9711,2.9711,0,2.9517,2.9552,2.9545,2.9568,2.9607,2.9596,2.9635,2.9637,2.9646,2.967,2.9652,2.9675,2.9663,2.9686,2.968,2.9718,2.9723,2.9722,2.972,2.9723,2.9723,2.973,2.9725,2.9714,2.9713,2.9713,2.9712,0,2.9591,2.9588,2.9628,2.9636,2.9638,2.9667,2.9673,2.9695,2.9694,2.9725,2.9731,2.9729,2.9755,2.9749,2.9777,2.9773,2.9821,2.9813,2.9818,2.9816,2.985,2.9847,2.9961,2.9976,2.9873,2.9874,2.9874,0,2.9638,2.9665,2.9676,2.9691,2.9698,2.9722,2.9737,2.9728,2.9743,2.9759,2.978,2.9804,2.9823,2.9865,2.9866,2.9888,2.988,2.9919,2.9883,2.9886,2.9881,2.9879,2.9882,2.9926,2.9927,2.9928,2.9928,0,2.9722,2.972,2.9741,2.9763,2.9781,2.9797,2.9811,2.9825,2.9817,2.9836,2.9862,2.9877,2.9907,2.9931,2.9952,2.9957,2.9942,2.994,2.9949,2.9952,2.9954,2.9954,2.9837,2.9937,2.9936,2.9936,2.9935,2.9935,2.9784,2.9807,2.982,2.9844,2.9855,2.987,2.9892,2.9894,2.9916,2.994,2.9934,2.9965,2.9977,3.0003,3.0011,3.0035,3.0021,3.0034,3.0037,3.004,3.0044,2.9951,3.0039,3.0039,3.0039,3.0038,3.0038,0,2.9867,2.9875,2.9898,2.992,2.994,2.9926,2.9942,2.9959,2.9987,3.0,3.0019,3.0051,3.0076,3.008,3.0103,3.0122,3.0115,3.0128,3.0126,3.0128,3.0056,3.0046,3.0133,3.0133,3.0133,3.0133,3.0133,3.0133,2.9913,2.9952,2.9952,2.9997,3.0004,3.0034,3.0045,3.0059,3.0069,3.0106,3.0126,3.013,3.014,3.0164,3.0186,3.0187,3.0196,3.0212,3.021,3.0142,3.0133,3.0124,3.0114,3.0214,3.0214,3.028,3.028,3.0281]},{"header":{"parameterUnit":"m.s-1","parameterCategory":1,"la1":30.2991,"la2":30.254,"lo1":-89.0895,"lo2":-89.0444,"dy":0.0017,"dx":0.0017,"nx":28,"ny":28,"refTime":"2023-10-15T21:00:00:Z","depth":0,"parameterNumber":3,"parameterNumberName":"V-component_of_WINDS"},"data":[0,0,0,0,0,0,0,0,0,0,0,0,0,0,0,0,0,0,0,0,0,0,0,0,0,0,0,0,0,0,0,0,0,0,0,0,0,0,0,0,0,0,0,0,0,0,0,0,0,0,0,0,0,0,0,0,0,0,-7.699,-7.6991,0,-7.7074,-7.7075,-7.7076,-7.6989,-7.6985,-7.6982,-7.6979,-7.7057,-7.7063,-7.7068,0,0,0,0,0,0,0,0,0,0,0,0,0,-7.6749,-7.6754,-7.699,-7.6991,-7.6992,-7.7074,-7.7075,-7.7076,-7.6989,-7.6985,-7.6981,-7.6977,-7.7056,-7.7062,-7.7068,0,0,0,0,0,0,0,0,0,0,0,0,0,-7.6845,-7.6755,-7.699,-7.6959,-7.6957,-7.7074,-7.7075,-7.7076,-7.699,-7.6985,-7.698,-7.6975,-7.7054,-7.7061,-7.7069,-7.7218,0,0,-7.7093,-7.7096,0,0,0,0,0,0,0,0,-7.684,-7.6854,-7.6962,-7.6961,-7.6959,-7.7016,-7.7019,-7.7124,-7.6992,-7.6977,-7.6979,-7.6973,-7.7047,-7.7055,-7.7082,-7.7222,-7.7225,-7.7094,-7.7098,-7.7102,-7.7104,0,0,0,0,0,0,0,-7.6833,-7.685,-7.7023,-7.6964,-7.6962,-7.6939,-7.6947,-7.7038,-7.7039,-7.6978,-7.6972,-7.6984,-7.7045,-7.7075,-7.7083,-7.7226,-7.7093,-7.71,-7.7105,-7.7108,-7.7494,-7.7499,0,0,0,0,0,0,-7.6831,-7.6845,-7.702,-7.7025,-7.6886,-7.6947,-7.6956,-7.7003,-7.7038,-7.7039,-7.6988,-7.6979,-7.7064,-7.7074,-7.7085,-7.7263,-7.7102,-7.7109,-7.7114,-7.7488,-7.7495,-7.7501,0,0,0,0,0,0,-7.6826,-7.6847,-7.7017,-7.6934,-7.6954,-7.6957,-7.701,-7.7007,-7.7036,-7.7046,-7.7045,-7.7018,-7.706,-7.7074,-7.7187,-7.7264,-7.7113,-7.712,-7.7482,-7.749,-7.7498,-7.7619,0,0,0,0,0,0,-7.6819,-7.6846,-7.6904,-7.6936,-7.6958,-7.7119,-7.7014,-7.7012,-7.7051,-7.704,-7.7073,-7.7074,-7.7057,-7.7175,-7.7194,-7.7272,-7.7126,-7.7475,-7.7485,-7.7495,-7.7608,-7.763,-7.7649,0,0,0,0,0,-7.6811,-7.6933,-7.6907,-7.6929,-7.7031,-7.7123,-7.7136,-7.7116,-7.7057,-7.7115,-7.7121,-7.7073,-7.7253,-7.7188,-7.7208,-7.729,-7.747,-7.7482,-7.7495,-7.7598,-7.7626,-7.7649,0,0,0,0,0,0,-7.6906,-7.6936,-7.6908,-7.7044,-7.7083,-7.7109,-7.718,-7.7146,-7.7199,-7.7187,-7.7158,-7.7166,-7.7286,-7.7299,-7.7225,-7.7436,-7.7351,-7.7369,-7.7423,-7.7449,-7.747,-7.7463,-7.7132,0,0,0,0,0,-7.6944,-7.7019,-7.7039,-7.7157,-7.7178,-7.7177,-7.7216,-7.7198,-7.7235,-7.725,-7.7264,-7.73,-7.7365,-7.7408,-7.7468,-7.761,-7.7615,-7.7676,-7.7697,-7.7714,-7.7728,-7.7805,-7.7832,-7.7542,-7.7542,-7.7542,0,0,-7.702,-7.7046,-7.7094,-7.7177,-7.7204,-7.7281,-7.719,-7.7274,-7.733,-7.7261,-7.7369,-7.7382,-7.742,-7.7548,-7.7605,-7.7562,-7.781,-7.773,-7.7743,-7.7748,-7.782,-7.7848,-7.7872,-7.755,-7.7549,-7.7547,0,0,-7.7199,-7.7227,-7.7329,-7.7359,-7.7403,-7.7402,-7.7426,-7.7459,-7.7465,-7.7573,-7.7524,-7.7589,-7.7701,-7.7731,-7.7761,-7.7955,-7.7912,-7.7975,-7.8082,-7.8157,-7.818,-7.82,-7.8269,-7.8294,-7.799,-7.799,-7.799,0,-7.7288,-7.7404,-7.7384,-7.7473,-7.7511,-7.7457,-7.7559,-7.7588,-7.7648,-7.7675,-7.7627,-7.7769,-7.779,-7.7925,-7.7973,-7.7999,-7.8025,-7.797,-7.8179,-7.8199,-7.8217,-7.8283,-7.8309,-7.7997,-7.7997,-7.7996,-7.7995,0,-7.7511,-7.7592,-7.7668,-7.7732,-7.7778,-7.7873,-7.7867,-7.7916,-7.7895,-7.7898,-7.8009,-7.8034,-7.8099,-7.813,-7.8108,-7.8262,-7.8234,-7.8184,-7.8097,-7.8253,-7.8314,-7.8338,-7.8008,-7.8005,-7.8003,-7.8001,0,0,-7.7749,-7.7804,-7.7832,-7.7861,-7.7907,-7.7968,-7.8061,-7.8127,-7.8169,-7.8214,-7.8289,-7.8387,-7.8342,-7.8376,-7.8358,-7.8424,-7.8576,-7.8365,-7.8365,-7.8403,-7.8746,-7.8783,-7.8813,-7.8549,-7.8554,-7.8557,-7.8743,0,-7.7929,-7.8093,-7.8079,-7.8233,-7.8307,-7.8258,-7.8338,-7.8375,-7.8381,-7.8443,-7.8448,-7.8519,-7.8453,-7.8474,-7.8537,-7.8544,-7.8644,-7.8531,-7.8617,-7.8621,-7.8609,-7.8845,-7.8884,-7.9058,-7.8767,-7.8771,-7.8774,0,-7.816,-7.8217,-7.8379,-7.8416,-7.8446,-7.8519,-7.858,-7.8641,-7.8681,-7.868,-7.8721,-7.8692,-7.8784,-7.8698,-7.8823,-7.8746,-7.8781,-7.879,-7.8796,-7.8802,-7.8706,-7.8856,-7.9112,-7.9138,-7.8811,-7.8808,-7.8805,0,-7.8318,-7.8434,-7.8546,-7.8572,-7.8618,-7.8671,-7.8692,-7.8727,-7.8769,-7.8821,-7.8847,-7.8909,-7.8942,-7.899,-7.8978,-7.8916,-7.9106,-7.9019,-7.9107,-7.9108,-7.9148,-7.9145,-7.9413,-7.9173,-7.9172,-7.9172,-7.9171,0,-7.852,-7.862,-7.8618,-7.8687,-7.8799,-7.8782,-7.8892,-7.8907,-7.8939,-7.9009,-7.8969,-7.9035,-7.9016,-7.9081,-7.9072,-7.9177,-7.9192,-7.9194,-7.919,-7.9197,-7.9197,-7.9218,-7.9205,-7.9179,-7.9177,-7.9176,-7.9175,0,-7.8713,-7.8716,-7.8835,-7.8871,-7.8882,-7.8962,-7.8991,-7.9056,-7.906,-7.9149,-7.9168,-7.9174,-7.9248,-7.9242,-7.9325,-7.9319,-7.9449,-7.9431,-7.9437,-7.9432,-7.9521,-7.9512,-7.981,-7.9848,-7.9585,-7.9587,-7.959,0,-7.8841,-7.8918,-7.8963,-7.9009,-7.9035,-7.9108,-7.9151,-7.9138,-7.9184,-7.9237,-7.9295,-7.9367,-7.9423,-7.9544,-7.9554,-7.9617,-7.96,-7.97,-7.9608,-7.9614,-7.96,-7.9596,-7.9603,-7.9717,-7.972,-7.9722,-7.9724,0,-7.9068,-7.9067,-7.9132,-7.9199,-7.9253,-7.9304,-7.935,-7.9389,-7.938,-7.9434,-7.9512,-7.9556,-7.9642,-7.9713,-7.9774,-7.9793,-7.9757,-7.9754,-7.9777,-7.9784,-7.9784,-7.9785,-7.9485,-7.9746,-7.9744,-7.9742,-7.9741,-7.974,-7.9232,-7.9299,-7.9342,-7.9417,-7.9451,-7.9497,-7.956,-7.9574,-7.9639,-7.971,-7.9698,-7.9785,-7.9823,-7.9902,-7.9927,-7.9993,-7.9957,-7.9991,-8.0,-8.0008,-8.0018,-7.9775,-8.0004,-8.0004,-8.0003,-8.0003,-8.0002,0,-7.9457,-7.9483,-7.9552,-7.9621,-7.9679,-7.9645,-7.9695,-7.9745,-7.9823,-7.9864,-7.9922,-8.0011,-8.008,-8.0097,-8.0163,-8.0213,-8.0199,-8.0231,-8.0226,-8.0231,-8.0047,-8.002,-8.0242,-8.0242,-8.0242,-8.0242,-8.0242,-8.0241,-7.958,-7.9692,-7.9696,-7.9825,-7.9849,-7.9936,-7.9968,-8.0009,-8.0042,-8.0144,-8.0203,-8.0215,-8.0246,-8.0315,-8.0376,-8.038,-8.0405,-8.0444,-8.0441,-8.0268,-8.0244,-8.0221,-8.0195,-8.045,-8.045,-8.0619,-8.062,-8.0622]}]]